Regional Weather Roundup
Issued by NWS Lake Charles, LA

Home | Current Version | Previous Version | Text Only | Print | Product List | Glossary On
Versions: 1 2 3 4 5 6 7 8 9 10 11 12 13 14 15 16 17 18 19 20 21 22 23 24 25 26 27 28 29 30 31 32 33 34 35 36 37 38 39 40 41 42 43 44 45 46 47 48 49 50
000
ASUS44 KLCH 120510
RWRLCH
REGIONAL WEATHER ROUNDUP
NATIONAL WEATHER SERVICE LAKE CHARLES LA
1100 PM CST THU FEB 11 2016

Note: "fair" indicates few or no clouds below 12,000 feet with no
significant weather and/or obstructions to visibility.


ACROSS SOUTHEAST TEXAS

CITY           SKY/WX    TMP DP  RH WIND       PRES   REMARKS
BEAUMONT       FOG       55  54  96 S5        30.19S VSB 1/4
BEAUMONT CITY  FAIR      58  56  91 S3        30.19S
ORANGE         CLEAR     58  55  88 SW6       30.21S
JASPER         CLEAR     55  51  87 S3        30.19S
$$

ACROSS CENTRAL LOUISIANA

CITY           SKY/WX    TMP DP  RH WIND       PRES   REMARKS
LEESVILLE      CLEAR     59  55  87 SW7       30.17R
FULLERTON      FAIR      59  54  83 SW3       30.14S
ALEXANDRIA INT CLEAR     61  55  81 SW9       30.14S
ESLER FIELD    CLEAR     61  54  77 SW6       30.15S
DERIDDER         N/A     58  56  92 S7        30.19S
OAKDALE          N/A     55  54  97 CALM      30.18S
OPELOUSAS      FAIR      57  56  96 SW5       30.19S
$$

ACROSS SOUTHWEST AND SOUTH CENTRAL LOUISIANA

CITY           SKY/WX    TMP DP  RH WIND       PRES   REMARKS
SULPHUR        FOG       55  55  99 MISG      30.21R VSB 1/2
LAKE CHARLES   FOG       54  53  97 CALM      30.20R VSB 1/2
CHENNAULT INT  CLEAR     56  55  97 S5        30.20S
CAMERON PHI    CLEAR     61  59  94 SW9       30.23R FOG
DEQUINCY       FAIR      58  58 100 S3        30.19R
JENNINGS       FAIR      55  55 100 S5        30.20S
LAFAYETTE      CLEAR     58  56  93 SW7       30.21S
NEW IBERIA     CLEAR     54  54 100 SW7       30.22S FOG
ABBEVILLE      FAIR      57  57 100 SW8       30.21S
PATTERSON      CLEAR     55  54  94 SW6       30.24F
SALT POINT       N/A     57  57 100 VRB5      30.22S
$$

SELECTED SITES ACROSS THE REGION

CITY           SKY/WX    TMP DP  RH WIND       PRES   REMARKS
HOUSTON BUSH   CLEAR     62  57  83 S3        30.17S
HOUSTON HOBBY  CLEAR     59  57  93 S8        30.18S
GALVESTON      CLEAR     59  59 100 S8        30.20F
COLLEGE STAT   CLEAR     60  51  72 S9        30.14R
CONROE         CLEAR     61  54  77 SW10      30.17S
HUNTSVILLE     CLEAR     61  52  72 S13       30.14S
LUFKIN         PTCLDY    59  45  59 S7        30.14R
SHREVEPORT     CLEAR     55  40  56 E7        30.13S
MONROE         CLEAR     47  37  68 NE5       30.17S
NATCHEZ MS     CLEAR     61  54  77 SW8       30.15S
BATON ROUGE    CLEAR     60  56  86 SW12      30.19F
N.O. INTL ARPT PTCLDY    60  55  83 SW12      30.22S
SLIDELL        PTCLDY    60  56  86 SW6       30.20S
$$

MARINE REPORTS

STATION/POSITION TIME  SKY/WX   TEMP    WIND        PRES    VSBY
                                AIR SEA DIR/SP/G
                 (UTC)          (F)     (DEG/KT/KT) (MB)    (MI)
BUOY 30 S HIGH I 0450            61 59  200/ 10/ 12 1022.4F
WVE H/P(F/S)=  3/ 7

SEA RIM ST PARK  0500            60     220/  6/  7 1023.1R
PORT ARTHUR      0400               56  220/  5/  9 1022.6R
SABINE PASS N    0400            59 57  210/  4/  6 1023.6F
TEXAS POINT      NOT AVBL
CALCASIEU PASS   0400            60 58  230/ 11/ 13 1021.6S
LK CHARLES BEACH 0400            62 58              1022.7R
MARSH ISLAND     NOT AVBL
FRESH WATER LOCK 0400            61 56  210/  6/  8 1023.4R
AMERADA PASS     0400            59 54  200/  4/  7 1023.8R
$$



USA.gov is the U.S. government's official web portal to all federal, state and local government web resources and services.